This is the latest recevied weather packets stored in our database for station/object AD8AK. If no packets are shown the sender has not sent any weather packets the latest 1 day(s).
| Time | Temp. | Humidity | Pressure | Rain* | Wind** | Luminosity | Snow |
|---|---|---|---|---|---|---|---|
| 1778050653 | 7.22° C | 96% | 1009.2 hPa | 1.27 mm | 0 m/s | - | - |
| 1778050350 | 7.22° C | 96% | 1009.5 hPa | 0 mm | 0 m/s | - | - |
| 1778050046 | 7.22° C | 96% | 1009.4 hPa | 0 mm | 0 m/s | - | - |
| 1778049742 | 7.22° C | 96% | 1009.2 hPa | 0 mm | 0 m/s | - | - |
| 1778049440 | 7.22° C | 96% | 1009.3 hPa | 1.78 mm | 0 m/s | - | - |
| 1778049137 | 7.22° C | 96% | 1008.8 hPa | 1.78 mm | 0 m/s | - | - |
| 1778048835 | 7.22° C | 96% | 1008.9 hPa | 1.27 mm | 0 m/s | - | - |
| 1778048532 | 7.22° C | 96% | 1008.7 hPa | 1.27 mm | 0 m/s | - | - |
| 1778048228 | 7.22° C | 96% | 1008.7 hPa | 1.78 mm | 0 m/s | - | - |
| 1778047926 | 7.22° C | 96% | 1009.3 hPa | 1.78 mm | 0 m/s | - | - |
| 1778047624 | 7.22° C | 96% | 1009.3 hPa | 1.27 mm | 0.89 m/s, 339° | - | - |
| 1778047321 | 7.78° C | 96% | 1009.3 hPa | 3.05 mm | 0 m/s | - | - |
| 1778047018 | 7.78° C | 96% | 1009.2 hPa | 1.78 mm | 0 m/s | - | - |
| 1778046715 | 7.78° C | 96% | 1009.1 hPa | 0 mm | 0 m/s | - | - |
| 1778046412 | 7.78° C | 96% | 1008.9 hPa | 1.27 mm | 0.89 m/s, 318° | - | - |
| 1778046107 | 7.78° C | 96% | 1008.7 hPa | 1.27 mm | 0 m/s | - | - |
| 1778045805 | 7.78° C | 96% | 1008.7 hPa | 1.78 mm | 0 m/s | - | - |
| 1778045504 | 7.78° C | 96% | 1008.8 hPa | 1.78 mm | 0 m/s | - | - |
| 1778045202 | 7.78° C | 96% | 1009.1 hPa | 1.27 mm | 0 m/s | - | - |
| 1778044900 | 7.78° C | 96% | 1009.4 hPa | 1.78 mm | 0 m/s | - | - |
| 1778044597 | 7.78° C | 96% | 1009.4 hPa | 3.56 mm | 0.45 m/s, 326° | - | - |
| 1778044293 | 7.78° C | 96% | 1009.1 hPa | 1.27 mm | 0 m/s | - | - |
| 1778043991 | 7.78° C | 96% | 1009.4 hPa | 0 mm | 0 m/s | - | - |
| 1778043688 | 7.78° C | 96% | 1009.2 hPa | 1.78 mm | 0 m/s | - | - |
| 1778043384 | 7.78° C | 96% | 1009.3 hPa | 1.27 mm | 0 m/s | - | - |
* Rain latest hour (hover to see other rain measurements)
** Current wind speed in m/s (hover to see current wind gust speed)